Hourly Weather Multai

Today, 17 September, Friday

Time Temperature Precipitation Wind Pressure Humidity
00:00 +22°C° 0 mm 5 mps 690 mmHg 92%
01:00 +22°C° 0 mm 5 mps 690 mmHg 92%
02:00 +22°C° 0 mm 5 mps 690 mmHg 92%
03:00 +22°C° 0 mm 5 mps 690 mmHg 92%
04:00 +22°C° 0 mm 5 mps 690 mmHg 92%
05:00 +21°C° 0 mm 4 mps 690 mmHg 94%
06:00 +22°C° 0 mm 4 mps 690 mmHg 93%
07:00 +22°C° 0 mm 4 mps 691 mmHg 92%
08:00 +23°C° 0 mm 4 mps 692 mmHg 91%
09:00 +25°C° 0.1 mm 4 mps 692 mmHg 88%
10:00 +26°C° 0.1 mm 4 mps 692 mmHg 86%
11:00 +27°C° 0 mm 5 mps 692 mmHg 84%
12:00 +27°C° 0.9 mm 5 mps 691 mmHg 84%
13:00 +27°C° 0.9 mm 5 mps 690 mmHg 84%
14:00 +27°C° 0.9 mm 5 mps 690 mmHg 84%
15:00 +26°C° 1 mm 4 mps 690 mmHg 86%
16:00 +26°C° 1 mm 4 mps 690 mmHg 88%
17:00 +25°C° 1 mm 4 mps 690 mmHg 90%
18:00 +25°C° 0.1 mm 4 mps 691 mmHg 92%
19:00 +24°C° 0.1 mm 3 mps 691 mmHg 93%
20:00 +22°C° 0.1 mm 3 mps 691 mmHg 95%
21:00 +22°C° 0 mm 3 mps 691 mmHg 95%
22:00 +22°C° 0 mm 3 mps 692 mmHg 95%
23:00 +22°C° 0 mm 3 mps 692 mmHg 95%

Tomorrow, 18 September, Saturday

Time Temperature Precipitation Wind Pressure Humidity
00:00 +22°C° 0 mm 3 mps 691 mmHg 95%
01:00 +22°C° 0 mm 3 mps 691 mmHg 96%
02:00 +22°C° 0 mm 3 mps 691 mmHg 96%
03:00 +21°C° 0 mm 3 mps 691 mmHg 96%
04:00 +21°C° 0 mm 3 mps 691 mmHg 96%
05:00 +21°C° 0 mm 2 mps 691 mmHg 96%
06:00 +23°C° 0 mm 2 mps 692 mmHg 92%
07:00 +24°C° 0 mm 3 mps 692 mmHg 89%
08:00 +25°C° 0 mm 3 mps 693 mmHg 86%
09:00 +26°C° 0.1 mm 3 mps 693 mmHg 82%
10:00 +27°C° 0.1 mm 3 mps 693 mmHg 79%
11:00 +28°C° 0.1 mm 3 mps 693 mmHg 76%
12:00 +28°C° 0.6 mm 3 mps 693 mmHg 76%
13:00 +28°C° 0.6 mm 3 mps 692 mmHg 76%
14:00 +28°C° 0.6 mm 3 mps 692 mmHg 75%
15:00 +27°C° 0.7 mm 3 mps 692 mmHg 80%
16:00 +27°C° 0.7 mm 3 mps 692 mmHg 84%
17:00 +26°C° 0.7 mm 3 mps 692 mmHg 88%
18:00 +25°C° 0 mm 3 mps 692 mmHg 90%
19:00 +24°C° 0 mm 2 mps 693 mmHg 92%
20:00 +24°C° 0 mm 2 mps 693 mmHg 94%
21:00 +23°C° 0 mm 2 mps 693 mmHg 94%
22:00 +23°C° 0 mm 2 mps 693 mmHg 94%
23:00 +23°C° 0 mm 1 mps 693 mmHg 94%

Day after tomorrow, 19 September, Sunday

Time Temperature Precipitation Wind Pressure Humidity
00:00 +23°C° 0 mm 2 mps 693 mmHg 93%
01:00 +23°C° 0 mm 2 mps 693 mmHg 93%
02:00 +23°C° 0 mm 2 mps 692 mmHg 93%
03:00 +23°C° 0 mm 2 mps 692 mmHg 93%
04:00 +23°C° 0 mm 2 mps 693 mmHg 93%
05:00 +23°C° 0 mm 2 mps 693 mmHg 93%
06:00 +24°C° 0 mm 1 mps 694 mmHg 91%
07:00 +24°C° 0 mm 1 mps 694 mmHg 88%
08:00 +25°C° 0 mm 1 mps 695 mmHg 85%
09:00 +26°C° 0.4 mm 2 mps 695 mmHg 82%
10:00 +27°C° 0.4 mm 2 mps 695 mmHg 79%
11:00 +28°C° 0.4 mm 2 mps 695 mmHg 75%
12:00 +28°C° 0.7 mm 3 mps 694 mmHg 76%
13:00 +28°C° 0.7 mm 3 mps 693 mmHg 77%
14:00 +28°C° 0.7 mm 3 mps 693 mmHg 78%
15:00 +27°C° 1.1 mm 3 mps 693 mmHg 82%
16:00 +26°C° 1.1 mm 2 mps 693 mmHg 86%
17:00 +26°C° 1.1 mm 2 mps 693 mmHg 89%
18:00 +25°C° 0.5 mm 2 mps 693 mmHg 91%
19:00 +25°C° 0.5 mm 2 mps 693 mmHg 92%
20:00 +24°C° 0.5 mm 1 mps 694 mmHg 94%
21:00 +24°C° 0.4 mm 2 mps 694 mmHg 93%
22:00 +24°C° 0.4 mm 2 mps 694 mmHg 92%
23:00 +24°C° 0.4 mm 2 mps 694 mmHg 91%

20 September, Monday

Time Temperature Precipitation Wind Pressure Humidity
00:00 +24°C° 0.9 mm 2 mps 693 mmHg 92%
01:00 +24°C° 0.9 mm 1 mps 693 mmHg 93%
02:00 +24°C° 0.9 mm 1 mps 693 mmHg 94%
03:00 +23°C° 1.9 mm 1 mps 693 mmHg 95%
04:00 +23°C° 1.9 mm 1 mps 693 mmHg 96%
05:00 +23°C° 1.9 mm 1 mps 693 mmHg 97%
06:00 +23°C° 2.7 mm 1 mps 693 mmHg 97%
07:00 +23°C° 2.7 mm 1 mps 694 mmHg 97%
08:00 +23°C° 2.7 mm 1 mps 694 mmHg 97%
09:00 +24°C° 0.7 mm 1 mps 694 mmHg 96%
10:00 +24°C° 0.7 mm 1 mps 694 mmHg 95%
11:00 +24°C° 0.7 mm 1 mps 694 mmHg 94%
12:00 +24°C° 1.3 mm 1 mps 693 mmHg 94%
13:00 +24°C° 1.3 mm 2 mps 692 mmHg 94%
14:00 +24°C° 1.3 mm 2 mps 692 mmHg 94%
15:00 +24°C° 0.3 mm 1 mps 691 mmHg 94%
16:00 +23°C° 0.3 mm 1 mps 691 mmHg 94%
17:00 +23°C° 0.3 mm 1 mps 691 mmHg 94%
18:00 +23°C° 0 mm 1 mps 692 mmHg 94%
19:00 +23°C° 0 mm 1 mps 692 mmHg 95%
20:00 +23°C° 0 mm 1 mps 693 mmHg 96%
21:00 +23°C° 0 mm 1 mps 692 mmHg 96%
22:00 +23°C° 0 mm 1 mps 692 mmHg 96%
23:00 +23°C° 0 mm 1 mps 692 mmHg 96%

21 September, Tuesday

Time Temperature Precipitation Wind Pressure Humidity
00:00 +23°C° 0 mm 1 mps 692 mmHg 96%
01:00 +23°C° 0 mm 1 mps 692 mmHg 96%
02:00 +23°C° 0 mm 1 mps 692 mmHg 97%
03:00 +23°C° 0.3 mm 1 mps 692 mmHg 97%
04:00 +23°C° 0.3 mm 1 mps 692 mmHg 96%
05:00 +23°C° 0.3 mm 1 mps 692 mmHg 96%
06:00 +23°C° 0.3 mm 1 mps 692 mmHg 95%
07:00 +24°C° 0.3 mm 1 mps 693 mmHg 93%
08:00 +24°C° 0.3 mm 1 mps 693 mmHg 92%
09:00 +25°C° 0.8 mm 2 mps 693 mmHg 89%
10:00 +26°C° 0.8 mm 2 mps 693 mmHg 86%
11:00 +27°C° 0.8 mm 3 mps 693 mmHg 83%
12:00 +27°C° 1.2 mm 3 mps 692 mmHg 82%
13:00 +27°C° 1.2 mm 3 mps 691 mmHg 82%
14:00 +27°C° 1.2 mm 3 mps 691 mmHg 82%
15:00 +26°C° 0.9 mm 3 mps 691 mmHg 84%
16:00 +26°C° 0.9 mm 3 mps 691 mmHg 87%
17:00 +25°C° 0.9 mm 3 mps 691 mmHg 89%
18:00 +25°C° 0.1 mm 3 mps 691 mmHg 92%
19:00 +24°C° 0.1 mm 2 mps 691 mmHg 94%
20:00 +23°C° 0.1 mm 2 mps 692 mmHg 96%
21:00 +23°C° 0 mm 2 mps 692 mmHg 96%
22:00 +23°C° 0 mm 2 mps 692 mmHg 96%
23:00 +21°C° 0 mm 2 mps 692 mmHg 97%

22 September, Wednesday

Time Temperature Precipitation Wind Pressure Humidity
00:00 +21°C° 0 mm 2 mps 691 mmHg 97%
01:00 +21°C° 0 mm 2 mps 691 mmHg 97%
02:00 +21°C° 0 mm 2 mps 691 mmHg 97%
03:00 +21°C° 0 mm 2 mps 691 mmHg 97%
04:00 +21°C° 0 mm 2 mps 691 mmHg 96%
05:00 +21°C° 0 mm 2 mps 691 mmHg 96%
06:00 +23°C° 0 mm 2 mps 692 mmHg 94%
07:00 +24°C° 0 mm 2 mps 692 mmHg 92%
08:00 +24°C° 0 mm 3 mps 692 mmHg 90%
09:00 +25°C° 0.4 mm 3 mps 692 mmHg 87%
10:00 +26°C° 0.4 mm 3 mps 692 mmHg 84%
11:00 +27°C° 0.4 mm 4 mps 692 mmHg 81%
12:00 +27°C° 0.8 mm 4 mps 692 mmHg 82%
13:00 +27°C° 0.8 mm 4 mps 691 mmHg 83%
14:00 +27°C° 0.8 mm 4 mps 691 mmHg 83%
15:00 +26°C° 0.4 mm 4 mps 691 mmHg 85%
16:00 +26°C° 0.4 mm 3 mps 691 mmHg 87%
17:00 +26°C° 0.4 mm 3 mps 691 mmHg 89%
18:00 +25°C° 0.1 mm 3 mps 691 mmHg 91%
19:00 +24°C° 0.1 mm 3 mps 691 mmHg 93%
20:00 +23°C° 0.1 mm 2 mps 692 mmHg 95%
21:00 +23°C° 0 mm 2 mps 692 mmHg 95%
22:00 +22°C° 0 mm 3 mps 692 mmHg 96%
23:00 +22°C° 0 mm 3 mps 692 mmHg 96%
Show more

We Need Your Consent

Meteoprog and our Service Providers may store and access personal data such as cookies, device identifiers or other similar technologies on your device and process such data to personalise content and ads, as well as provide social media features and to analyse the traffic.

  • Store and/or access information on your device

    Cookies, device identifiers or other information can be stored or accessed on your device for the purposes indicated above.

  • Personalised ads and content, ad and content measurement, audience insights, and products development

    Ads and content can be personalised based on a profile. More data can be added to better personalise ads and content. Ad and content performance can be measured. Insights about the audience who saw the ads and content can be derived. Such data can be used to develop or improve user’s experience, systems and software.

By clicking ‘I Agree’ you will allow the use of indicated cookies, device identifiers, web beacons or other similar technologies. Your settings can be changed in the browser on your device.

For certain purposes, legitimate interests may be relied on, rather than consent. You can read more about this in our Privacy and Cookie Policy.